Other Public Products
Issued by NWS Grand Forks, ND

Home | Current Version | Previous Version | Graphics & Text | Print | Product List | Glossary On
Versions: 1 2 3 4 5 6 7 8 9 10 11 12 13 14 15 16 17 18 19 20 21 22 23 24 25 26 27 28 29 30 31 32 33 34 35 36 37 38 39 40 41 42 43 44 45 46 47 48 49 50
000
FPUS83 KFGF 181831
OPUFGF
PRAIRIE TO PINES WEATHER ROUNDUP
NATIONAL WEATHER SERVICE EASTERN NORTH DAKOTA/GRAND FORKS ND
1200 PM CST THU DEC 18 2014

 **SATELLITE DATA USED TO AUGMENT SKY COVER AT AUTOMATED STATIONS**
 *****  WEATHER ACROSS EASTERN NORTH DAKOTA  *****

CITY           SKY/WX    TMP DP  RH WIND       PRES   REMARKS
GRAND FORKS    CLOUDY    17  13  84 S9        30.23F WCI   6
6HR MIN TEMP:   3; 6HR MAX TEMP:  17;

GRAND FORKS AF CLOUDY    17  17  98 S9        30.22F WCI   5
GRAND CITY NWS NOT AVBL
BUXTON           N/A     16  14  93 SE10        N/A  WCI   4
DEVILS LAKE    CLOUDY    18   9  68 S10       30.09F WCI   6
6HR MIN TEMP:   9; 6HR MAX TEMP:  18;

FARGO          CLOUDY    17  12  80 S10       30.24F WCI   5
6HR MIN TEMP:   7; 6HR MAX TEMP:  17;

WAHPETON ARPT  CLOUDY    18  12  79 SE7       30.24F WCI   8
$$

 *****  WEATHER ACROSS CENTRAL AND WESTERN NORTH DAKOTA  *****

CITY           SKY/WX    TMP DP  RH WIND       PRES   REMARKS
JAMESTOWN      CLOUDY    19  14  81 S9        30.12F WCI   8
6HR MIN TEMP:  13; 6HR MAX TEMP:  19;

BISMARCK       CLOUDY    21  19  92 S8        30.08F WCI  11
6HR MIN TEMP:  16; 6HR MAX TEMP:  21;

MINOT          CLOUDY    22  18  85 S9        30.03F FOG     WCI  12
6HR MIN TEMP:  14; 6HR MAX TEMP:  21;

MINOT AFB      CLOUDY    21  21 100 S9        30.03F WCI  11
6HR MIN TEMP:  10; 6HR MAX TEMP:  20;

GARRISON         N/A     20  18  92 S8        30.03F WCI  10
6HR MIN TEMP:  18; 6HR MAX TEMP:  20;

WILLISTON      CLOUDY    24  20  84 S6        29.99F WCI  17
6HR MIN TEMP:  21; 6HR MAX TEMP:  24;

DICKINSON      CLOUDY    28  25  88 SW5       29.95F FOG     WCI  23
6HR MIN TEMP:  21; 6HR MAX TEMP:  28;

HETTINGER      CLOUDY    28  26  92 SW6       29.98F WCI  22
6HR MIN TEMP:  20; 6HR MAX TEMP:  28;

$$

 *****  OTHER OBSERVATIONS NORTHEAST NORTH DAKOTA  *****

CITY           SKY/WX    TMP DP  RH WIND       PRES   REMARKS
WALHALLA         N/A     19  14  79 S10       30.17F WCI   8
LANGDON        MOCLDY    21  16  79 S15       30.10F WCI   8
CAVALIER       MOCLDY    16  14  93 S8        30.19F FOG     WCI   5
GRAFTON        NOT AVBL
CANDO          CLOUDY    18  16  93 S13       30.11F WCI   4
FORT TOTTEN      N/A     17  13  85 S8        29.95S WCI   7
ROLLA          MOCLDY    14  14 100 S10       30.07F WCI   1
RUGBY          CLOUDY    16  16 100 SE7       30.08F FOG     WCI   6
 ***** THE ABOVE OBSERVATIONS ARE NON NWS ARE NOT QUALITY
        CONTROLLED AND MAY MIS-REPORT RAIN FOR SNOW...
$$

 *****  OTHER OBSERVATIONS SOUTHEAST NORTH DAKOTA *****

CITY           SKY/WX    TMP DP  RH WIND       PRES   REMARKS
COOPERSTOWN    NOT AVBL
VALLEY CITY    CLOUDY    18  18 100 S9        30.15F WCI   6
OAKES            N/A     23  19  86 S12       30.16F WCI  12
GWINNER        CLOUDY    23  21  93 MISG      30.18F
SHEYENNE NWR     N/A     18  13  80 SE7       29.95S WCI   9
BUFFALO        NOT AVBL
WYNDMERE       NOT AVBL
 ***** THE ABOVE OBSERVATIONS ARE NON NWS ARE NOT QUALITY
       CONTROLLED AND MAY MIS-REPORT RAIN FOR SNOW...
$$

  *****  WEATHER ACROSS NORTHERN MINNESOTA  *****

CITY           SKY/WX    TMP DP  RH WIND       PRES   REMARKS
FLAG ISLAND    SUNNY     12   9  85 S7        30.23F WCI   2
WARROAD        SUNNY     19  14  79 S5        30.23F WCI  13
ROSEAU         FAIR      21  14  73 S9        30.22F WCI  11
HALLOCK          N/A     18  14  86 S12       30.22F WCI   5
THF RVR FALLS  MOSUNNY   18  16  93 S14       30.22F WCI   4
6HR MIN TEMP:   7; 6HR MAX TEMP:  18;

HALSTAD          N/A     18  12  79 S14         N/A  WCI   4
FOSSTON        SUNNY     18  12  79 S9        30.22F WCI   6
BAUDETTE       SUNNY     18  12  77 S5        30.23F WCI  11
6HR MIN TEMP:   4; 6HR MAX TEMP:  18;

WASKISH        FLURRIES  18  14  86 CALM      30.25F
CROOKSTON      PTSUNNY   18  16  93 S10       30.25F WCI   6
$$
  *****  WEATHER ACROSS CENTRAL AND WEST MINNESOTA  *****

CITY           SKY/WX    TMP DP  RH WIND       PRES   REMARKS
BEMIDJI        FLURRIES  16  12  84 S13       30.23F WCI   3
PARK RAPIDS    CLOUDY    17  12  80 S10       30.23F HAZE    WCI   5
6HR MIN TEMP:   2; 6HR MAX TEMP:  17;

WADENA         FLURRIES  16  10  79 NW9       30.23F WCI   4
DETROIT LAKES  FLURRIES  18  16  93 S9        30.22F WCI   6
MOORHEAD       CLOUDY    18  16  93 S14       30.24F WCI   4
FERGUS FALLS   CLOUDY    16  12  86 S12       30.27F WCI   3
ELBOW LAKE     CLOUDY    15  13  90 S13       30.23F WCI   2
6HR MIN TEMP:   8; 6HR MAX TEMP:  15;

MORRIS MN      PTSUNNY   18  16  93 SE10      30.23F WCI   6
STAPLES        FLURRIES  18  12  79 S10       30.24F WCI   6
WHEATON        CLOUDY    16  12  86 SE10      30.25F WCI   3
$$
  *****  WEATHER ELSEWHERE ACROSS MINNESOTA  *****

CITY           SKY/WX    TMP DP  RH WIND       PRES   REMARKS
DULUTH         CLOUDY    25  19  78 SE8       30.23F WCI  16
6HR MIN TEMP:  19; 6HR MAX TEMP:  25; 6HR PCP: TRACE;

INTRNTL FALLS  LGT SNOW  18  13  80 SW7       30.27F WCI   9
6HR MIN TEMP:  -2; 6HR MAX TEMP:  18; 6HR PCP: TRACE;

ELY            CLOUDY    19  18  93 E3        30.25F
CLOQUET        CLOUDY    25  19  80 SE6       30.24F WCI  18
BRAINERD       CLOUDY    19  15  84 S8        30.26F WCI   9
6HR MIN TEMP:   0; 6HR MAX TEMP:  19; 6HR PCP: TRACE;

HIBBING        CLOUDY    20  15  81 CALM      30.25F
6HR MIN TEMP:  15; 6HR MAX TEMP:  20; 6HR PCP: TRACE;

ALEXANDRIA     PTSUNNY   18  12  77 MISG      30.24F
6HR MIN TEMP:   8; 6HR MAX TEMP:  18;

SAINT CLOUD    LGT SNOW  20  14  77 SE5       30.28F VSB 1   WCI  13
6HR MIN TEMP:   9; 6HR MAX TEMP:  20; 6HR PCP:  0.01;

MINNEAPOLIS    LGT SNOW  19  16  88 CALM      30.30F FOG
6HR MIN TEMP:  13; 6HR MAX TEMP:  19; 6HR PCP:  0.01;

$$

  *****  WEATHER ACROSS SOUTH DAKOTA  *****

CITY           SKY/WX    TMP DP  RH WIND       PRES   REMARKS
SIOUX FALLS    CLOUDY    24  19  81 S7        30.20F WCI  16
6HR MIN TEMP:  19; 6HR MAX TEMP:  24;

BROOKINGS      NOT AVBL
WATERTOWN      CLOUDY    21  17  84 S7        30.16F WCI  12
6HR MIN TEMP:  16; 6HR MAX TEMP:  21;

HURON          CLOUDY    24  19  81 S10       30.17F WCI  14
6HR MIN TEMP:  19; 6HR MAX TEMP:  24; 6HR PCP: TRACE;

SISSETON       NOT AVBL
ABERDEEN       CLOUDY    24  18  77 S9        30.17F WCI  14
6HR MIN TEMP:  18; 6HR MAX TEMP:  24;

MITCHELL       CLOUDY    25  21  85 S10       30.20F WCI  15
PIERRE         CLOUDY    25  22  88 SE6       30.10F WCI  18
6HR MIN TEMP:  21; 6HR MAX TEMP:  25; 6HR PCP: TRACE;

MOBRIDGE       CLOUDY    25  22  88 S9        30.06F FOG     WCI  15
RAPID CITY     SUNNY     29  24  82 VRB3      30.00F
6HR MIN TEMP:  20; 6HR MAX TEMP:  29;

$$

  *****  SOME WEATHER IN NEARBY STATES *****

CITY           SKY/WX    TMP DP  RH WIND       PRES   REMARKS
GLASGOW MT     CLOUDY    26  24  92 CALM      29.94F FOG
6HR MIN TEMP:  24; 6HR MAX TEMP:  26;

GREAT FALLS MT CLOUDY    37  25  61 S20       29.91R
6HR MIN TEMP:  31; 6HR MAX TEMP:  37;

CHEYENNE WY    SUNNY     39  14  36 W18       30.02F
6HR MIN TEMP:  20; 6HR MAX TEMP:  39;

SCOTTSBLUFF NE MOSUNNY   13   9  84 NW6       30.07F FOG     WCI   4
6HR MIN TEMP:   6; 6HR MAX TEMP:  13; 6HR PCP: TRACE;

OMAHA NE       FLURRIES  29  25  85 S6        30.24F WCI  23
6HR MIN TEMP:  26; 6HR MAX TEMP:  29; 6HR PCP:  0.02;

DES MOINES IA  FLURRIES  29  18  63 S3        30.27F
6HR MIN TEMP:  23; 6HR MAX TEMP:  29; 6HR PCP: TRACE;

DAVENPORT IA   CLOUDY    24  18  77 W3        30.28F
6HR MIN TEMP:  16; 6HR MAX TEMP:  24;

CHICAGO IL     CLOUDY    26  17  68 W6        30.25F WCI  19
6HR MIN TEMP:  19; 6HR MAX TEMP:  26;

EAU CLAIRE WI  CLOUDY    23  18  81 S3        30.28F
6HR MIN TEMP:  21; 6HR MAX TEMP:  24;

LA CROSSE WI   CLOUDY    25  18  74 S3        30.30F
6HR MIN TEMP:  21; 6HR MAX TEMP:  25;

$$

  *****  SOME NATIONAL WEATHER *****

CITY           SKY/WX    TMP DP  RH WIND       PRES   REMARKS



USA.gov is the U.S. government's official web portal to all federal, state and local government web resources and services.